Location: Elaina
(34.1445°N, 106.7742°W)
Time: 13:01:25
(UTC+00:00)

NOSS 3-1 (C) - Pass Details

Date: 20 March 2026
Orbit: 618 x 1583 km, 63.4° (Epoch: 10 January)

Event Time Altitude Azimuth Distance (km) Brightness Sun altitude
Rises 12:14:09 0° 332° (NNW) 3,907 6.5 -12.5°
Reaches altitude 10° 12:16:39 10° 336° (NNW) 3,076 6.0 -12.0°
Maximum altitude 12:24:12 63° 57° (ENE) 1,493 4.8 -10.4°
Drops below altitude 10° 12:33:18 10° 138° (SE) 3,682 7.0 -8.5°
Sets 12:36:32 0° 141° (SE) 4,719 7.6 -7.9°
